Location: Warszawa
(52.2500°N, 21.0000°E)
Time: 10:04:04
(UTC+02:00)

Gurwin Techsat 1B - Pass Details

Date: 30 April 2024
Orbit: 811 x 812 km, 98.9° (Epoch: 20 May)

Event Time Altitude Azimuth Distance (km) Brightness Sun altitude
Rises 03:23:00 0° 22° (NNE) 3,349 13.3 -13.5°
Reaches altitude 10° 03:25:39 10° 34° (NNE) 2,412 12.5 -13.2°
Maximum altitude 03:30:17 29° 94° (E) 1,447 10.4 -12.7°
Drops below altitude 10° 03:34:52 10° 154° (SSE) 2,396 10.9 -12.3°
Sets 03:37:29 0° 165° (SSE) 3,322 11.5 -12.0°
